Change the Weather History Date:

Sunday, November 11, 2012

  Actual Average Record
Temperature  
Mean Temperature 37 °F -  
Max Temperature 55 °F 44 °F 71 °F (2005)
Min Temperature 19 °F 25 °F -8 °F (1986)
Degree Days  
Heating Degree Days 28    
Moisture  
Dew Point 25 °F    
Average Humidity 81    
Maximum Humidity 100    
Minimum Humidity 64    
Precipitation  
Precipitation 0.04 in - - ()
Sea Level Pressure  
Sea Level Pressure 29.88 in    
Wind  
Wind Speed 18 mph (WNW)    
Max Wind Speed 25 mph    
Max Gust Speed 34 mph    
Visibility 8 miles    
Events Rain    
Averages and records for this station are not official NWS values.
T = Trace of Precipitation, MM = Missing Value Source: NWS Daily Summary

Daily Weather History Graph

Daily Weather History Graph

Search for Another Location

Airport or City:

Trip Planner

Search our weather history database for the weather conditions in past years. The results will help you decide how hot, cold, wet, or windy it might be!

Date:

Astronomy

Nov. 11, 2012 Rise Set
Actual Time 7:04 AM CST 5:01 PM CST
Civil Twilight 6:35 AM CST 5:30 PM CST
Nautical Twilight 6:01 AM CST 6:04 PM CST
Astronomical Twilight 5:28 AM CST 6:37 PM CST
Moon 4:17 AM CST (11/11) 3:26 PM CST (11/11)
Length of Visible Light 10h 55m
Length of Day
9h 56m
Waning Crescent, 7% of the Moon is Illuminated
Nov 11
Waning Crescent
Nov 13
New
Nov 20
First Quarter
Nov 28
Full
Dec 6
Last Quarter

Hourly Weather History & Observations

Time (CST) Temp. Windchill Dew Point Humidity Pressure Visibility Wind Dir Wind Speed Gust Speed Precip Events Conditions
12:15 AM 55.4 °F - 53.6 °F 94% 29.63 in 10.0 mi West 15.0 mph - N/A Rain Light Rain
12:35 AM 53.6 °F - 51.8 °F 94% 29.63 in 10.0 mi West 13.8 mph - N/A Rain Light Rain
12:55 AM 51.8 °F - 50.0 °F 94% 29.64 in 10.0 mi NW 12.7 mph 20.7 mph 0.03 in Rain Light Rain
1:15 AM 50.0 °F - 48.2 °F 94% 29.64 in 10.0 mi NW 12.7 mph - N/A   Overcast
1:35 AM 48.2 °F - 46.4 °F 93% 29.65 in 9.0 mi WNW 13.8 mph 23.0 mph N/A   Overcast
1:55 AM 44.6 °F 35.9 °F 42.8 °F 93% 29.66 in 3.0 mi NW 23.0 mph - N/A Rain Light Rain
2:15 AM 41.0 °F 32.2 °F 39.2 °F 93% 29.69 in 4.0 mi NW 18.4 mph 26.5 mph N/A Rain Light Rain
2:35 AM 39.2 °F 29.3 °F 39.2 °F 100% 29.68 in 8.0 mi NW 20.7 mph 27.6 mph N/A Rain Light Rain
2:55 AM 37.4 °F 27.5 °F 37.4 °F 100% 29.68 in 9.0 mi NW 18.4 mph 25.3 mph N/A   Overcast
3:15 AM 37.4 °F 27.2 °F 35.6 °F 93% 29.71 in 5.0 mi NW 19.6 mph - N/A Rain Light Rain
3:35 AM 35.6 °F 25.5 °F 35.6 °F 100% 29.71 in 2.5 mi NW 17.3 mph - N/A Rain Light Rain
3:55 AM 35.6 °F 25.9 °F 33.8 °F 93% 29.73 in 2.0 mi NW 16.1 mph 26.5 mph N/A   Overcast
4:15 AM 33.8 °F 21.9 °F 33.8 °F 100% 29.73 in 2.0 mi WNW 21.9 mph - N/A   Overcast
4:35 AM 32.0 °F 19.2 °F 32.0 °F 100% 29.73 in 2.5 mi NW 23.0 mph - N/A Rain Light Rain
4:55 AM 33.8 °F 22.5 °F 32.0 °F 93% 29.77 in 9.0 mi NW 19.6 mph 25.3 mph N/A   Overcast
5:35 AM 32.0 °F 20.1 °F 30.2 °F 93% 29.74 in 7.0 mi NW 19.6 mph - N/A Rain Light Rain
5:55 AM 32.0 °F 20.8 °F 30.2 °F 93% 29.74 in 9.0 mi NW 17.3 mph 26.5 mph 0.01 in   Overcast
6:15 AM 32.0 °F 18.9 °F 30.2 °F 93% 29.75 in 5.0 mi NW 24.2 mph 31.1 mph N/A   Overcast
6:35 AM 30.2 °F 17.4 °F 28.4 °F 93% 29.77 in 2.5 mi NW 20.7 mph 31.1 mph N/A Rain Light Freezing Rain
7:35 AM 30.2 °F 17.8 °F 28.4 °F 93% 29.82 in 1.2 mi NW 19.6 mph - N/A Rain Light Freezing Rain
7:55 AM 30.2 °F 16.8 °F 28.4 °F 93% 29.82 in 1.0 mi NW 23.0 mph - N/A Rain Light Freezing Rain
8:15 AM 30.2 °F 17.4 °F 28.4 °F 93% 29.80 in 2.5 mi NW 20.7 mph - N/A Rain Light Freezing Rain
8:35 AM 30.2 °F 17.8 °F 26.6 °F 86% 29.79 in 8.0 mi NNW 19.6 mph 31.1 mph N/A   Overcast
8:55 AM 28.4 °F 16.2 °F 26.6 °F 93% 29.84 in 10.0 mi NW 17.3 mph 27.6 mph N/A   Overcast
9:35 AM 28.4 °F 14.1 °F 24.8 °F 86% 29.85 in 9.0 mi NW 24.2 mph - N/A   Overcast
9:55 AM 28.4 °F 14.1 °F 24.8 °F 86% 29.83 in 9.0 mi NW 24.2 mph 33.4 mph N/A   Overcast
10:15 AM 26.6 °F 12.7 °F 24.8 °F 93% 29.87 in 8.0 mi NW 20.7 mph 31.1 mph N/A   Overcast
10:35 AM 26.6 °F 12.0 °F 24.8 °F 93% 29.86 in 10.0 mi NW 23.0 mph - N/A   Overcast
10:55 AM 26.6 °F 13.1 °F 23.0 °F 86% 29.84 in 10.0 mi NW 19.6 mph 28.8 mph N/A   Overcast
11:15 AM 26.6 °F 12.0 °F 23.0 °F 86% 29.87 in 10.0 mi NW 23.0 mph 31.1 mph N/A   Overcast
11:35 AM 26.6 °F 12.4 °F 21.2 °F 80% 29.87 in 10.0 mi NW 21.9 mph 29.9 mph N/A   Overcast
12:15 PM 26.6 °F 13.8 °F 23.0 °F 86% 29.88 in 10.0 mi NW 17.3 mph 25.3 mph N/A   Overcast
12:35 PM 28.4 °F 14.4 °F 23.0 °F 80% 29.88 in 10.0 mi NW 23.0 mph - N/A   Overcast
12:55 PM 28.4 °F 15.4 °F 23.0 °F 80% 29.89 in 10.0 mi WNW 19.6 mph 27.6 mph N/A   Overcast
1:15 PM 28.4 °F 14.7 °F 23.0 °F 80% 29.89 in 10.0 mi NW 21.9 mph 29.9 mph N/A   Mostly Cloudy
1:35 PM 30.2 °F 16.2 °F 23.0 °F 75% 29.89 in 10.0 mi WNW 25.3 mph 34.5 mph N/A   Mostly Cloudy
1:55 PM 30.2 °F 16.8 °F 23.0 °F 75% 29.90 in 10.0 mi WNW 23.0 mph 28.8 mph N/A   Scattered Clouds
2:15 PM 30.2 °F 16.2 °F 23.0 °F 75% 29.89 in 10.0 mi NW 25.3 mph 32.2 mph N/A   Scattered Clouds
2:35 PM 30.2 °F 16.8 °F 21.2 °F 69% 29.91 in 10.0 mi WNW 23.0 mph 33.4 mph N/A   Partly Cloudy
2:55 PM 28.4 °F 14.7 °F 19.4 °F 69% 29.91 in 10.0 mi NW 21.9 mph 31.1 mph N/A   Scattered Clouds
3:15 PM 28.4 °F 14.4 °F 19.4 °F 69% 29.92 in 10.0 mi NW 23.0 mph - N/A   Partly Cloudy
3:35 PM 28.4 °F 14.4 °F 19.4 °F 69% 29.92 in 10.0 mi NW 23.0 mph 32.2 mph N/A   Clear
3:55 PM 28.4 °F 15.8 °F 17.6 °F 64% 29.93 in 10.0 mi NW 18.4 mph 29.9 mph N/A   Partly Cloudy
4:15 PM 28.4 °F 15.8 °F 17.6 °F 64% 29.95 in 10.0 mi WNW 18.4 mph 27.6 mph N/A   Clear
4:35 PM 28.4 °F 14.4 °F 17.6 °F 64% 29.96 in 10.0 mi NW 23.0 mph - N/A   Clear
4:55 PM 26.6 °F 12.4 °F 17.6 °F 69% 29.97 in 10.0 mi WNW 21.9 mph - N/A   Clear
5:15 PM 26.6 °F 13.1 °F 17.6 °F 69% 29.97 in 10.0 mi WNW 19.6 mph - N/A   Clear
5:35 PM 26.6 °F 14.7 °F 15.8 °F 64% 29.99 in 10.0 mi WNW 15.0 mph 20.7 mph N/A   Clear
5:55 PM 24.8 °F 12.9 °F 17.6 °F 74% 30.00 in 10.0 mi WNW 13.8 mph - N/A   Clear
6:15 PM 24.8 °F 14.6 °F 17.6 °F 74% 30.01 in 10.0 mi WNW 10.4 mph - N/A   Clear
6:35 PM 24.8 °F 12.4 °F 15.8 °F 69% 30.02 in 10.0 mi WNW 15.0 mph 20.7 mph N/A   Clear
6:55 PM 24.8 °F 14.0 °F 15.8 °F 69% 30.03 in 10.0 mi WNW 11.5 mph 23.0 mph N/A   Clear
7:15 PM 24.8 °F 11.1 °F 14.0 °F 64% 30.04 in 10.0 mi WNW 18.4 mph 24.2 mph N/A   Clear
7:35 PM 24.8 °F 10.7 °F 14.0 °F 64% 30.05 in 10.0 mi WNW 19.6 mph 25.3 mph N/A   Clear
7:55 PM 23.0 °F 11.1 °F 14.0 °F 68% 30.05 in 10.0 mi WNW 12.7 mph 19.6 mph N/A   Clear
8:15 PM 23.0 °F 11.7 °F 14.0 °F 68% 30.06 in 10.0 mi WNW 11.5 mph 17.3 mph N/A   Clear
8:35 PM 23.0 °F 13.1 °F 14.0 °F 68% 30.06 in 10.0 mi WNW 9.2 mph - N/A   Clear
8:55 PM 23.0 °F 11.1 °F 14.0 °F 68% 30.07 in 10.0 mi WNW 12.7 mph - N/A   Clear
9:15 PM 23.0 °F 11.1 °F 14.0 °F 68% 30.07 in 10.0 mi WNW 12.7 mph - N/A   Clear
9:35 PM 23.0 °F 10.1 °F 14.0 °F 68% 30.08 in 10.0 mi WNW 15.0 mph 21.9 mph N/A   Clear
9:55 PM 23.0 °F 11.1 °F 14.0 °F 68% 30.08 in 10.0 mi WNW 12.7 mph - N/A   Clear
10:15 PM 23.0 °F 11.7 °F 14.0 °F 68% 30.08 in 10.0 mi WNW 11.5 mph - N/A   Clear
10:35 PM 21.2 °F 10.1 °F 14.0 °F 74% 30.09 in 10.0 mi West 10.4 mph - N/A   Clear
10:55 PM 21.2 °F 12.6 °F 14.0 °F 74% 30.09 in 10.0 mi West 6.9 mph - N/A   Clear
11:15 PM 19.4 °F 9.5 °F 14.0 °F 80% 30.09 in 10.0 mi West 8.1 mph - N/A   Clear
11:35 PM 19.4 °F 8.6 °F 14.0 °F 80% 30.09 in 10.0 mi West 9.2 mph - N/A   Clear
11:55 PM 21.2 °F 10.1 °F 14.0 °F 74% 30.10 in 10.0 mi West 10.4 mph - N/A   Clear